{"data":{"norad_id":51110,"intl_designator":"2022-005G","name":"STARLINK-3344","alt_names":[],"object_type":"PAYLOAD","status":"ACTIVE","operator":null,"country":"US","launch_date":"2022-01-19","launch_site_code":"AFETR","launch_vehicle":null,"mission":null,"orbit_class":"UNKNOWN","rcs_meters":null,"size_class":null,"mass_kg":null,"dimensions":null,"purposes":["comms"],"wikipedia_slug":null,"has_3d_model":false,"image_url":null,"decayed_at":null,"tle_current":{"epoch":"2026-09-20T04:47:40.640352Z","epoch_age_seconds":74155,"freshness":"FRESH","line1":"1 51110U 22005G   26263.19977593  .00000875  00000+0  37031-4 0  9993","line2":"2 51110  53.1603 127.0525 0001109  77.2863 282.8263 15.34388515258362","mean_motion":15.34388515,"eccentricity":0.0001109,"inclination_deg":53.1603,"raan_deg":127.0525,"arg_perigee_deg":77.2863,"mean_anomaly_deg":282.8263,"bstar":3.7031e-5,"rev_number":25836,"period_min":93.84846053804,"perigee_km":461.97872329206,"apogee_km":463.49602922871,"semimajor_km":6840.8743762604,"source":"CELESTRAK","updated_at":"2026-09-20T09:00:39.584950Z"}}}